This demonstration page uses our WeatherBlox Daily Observations layout. Learn more.

Left ArrowRight Arrow

39.12711, -84.51439

Hourly Observations for August 15, 2016

Temp ( °F °C ) Dew Point ( °F °C ) Humidity (%) Winds ( mph kmh ) Pressure ( in mb ) Visibility ( mi km ) Precip ( " mm )
12:53 am 00:53 Mostly Cloudy 75 23.9 75 23.9 100 100 N N/A 30.11 1020 8 13 N/A
1:10 am 01:10 Partly Cloudy 75 23.9 74 23.3 96 96 N 3 6 30.09 1019 9 14 N/A
1:38 am 01:38 Mostly Cloudy 73 23 73 23 100 100 NE 3 6 30.09 1019 8 13 N/A
1:53 am 01:53 Cloudy 74 23.3 74 23.3 100 100 NE 3 6 30.11 1020 7 11 N/A
2:19 am 02:19 Partly Cloudy 74 23.3 74 23.3 100 100 N N/A 30.09 1019 8 13 N/A
2:53 am 02:53 Clear 76 24.4 74 23.3 94 94 NE 3 6 30.10 1019 9 14 N/A
3:53 am 03:53 Mostly Cloudy 74 23.3 74 23.3 100 100 N N/A 30.11 1020 9 14 N/A
4:50 am 04:50 Cloudy with Nearby Thunderstorms 73 23 73 23 100 100 N N/A 30.09 1019 9 14 N/A
4:53 am 04:53 Cloudy with Nearby Thunderstorms 74 23.3 74 23.3 100 100 N N/A 30.11 1020 9 14 N/A
5:06 am 05:06 Cloudy with Thunderstorms 73 23 73 23 100 100 NNE 5 7 30.09 1019 8 13 N/A
5:14 am 05:14 Cloudy with Strong Thunderstorms 73 23 73 23 100 100 W 8 13 30.12 1020 2 2 N/A
5:16 am 05:16 Cloudy with Strong Thunderstorms 73 23 73 23 100 100 WSW 5 7 30.12 1020 1 1 N/A
5:21 am 05:21 Cloudy with Strong Thunderstorms 73 22.8 73 22.8 100 100 N N/A 30.12 1020 0 0 0.55 13.97
5:25 am 05:25 Cloudy with Strong Thunderstorms 73 22.8 73 22.8 100 100 NNW 6 9 30.12 1020 1 1 0.59 14.99
5:36 am 05:36 Cloudy with Strong Thunderstorms 73 23 73 23 100 100 NE 5 7 30.12 1020 2 2 N/A
5:38 am 05:38 Cloudy with Strong Thunderstorms 73 23 73 23 100 100 NE 6 9 30.12 1020 2 3 N/A
5:42 am 05:42 Cloudy with Thunderstorms 73 22.8 73 22.8 100 100 NNE 6 9 30.12 1020 3 5 0.68 17.27
5:50 am 05:50 Windy with Storms Likely 72 22 72 22 100 100 WSW 29 46 30.18 1022 2 2 N/A
5:53 am 05:53 Cloudy with Strong Thunderstorms 71 21.7 71 21.7 100 100 SW 23 37 30.19 1023 1 1 1.13 28.70
5:58 am 05:58 Cloudy with Strong Thunderstorms 70 21 70 21 100 100 W 15 24 30.15 1021 0 0 N/A
6:03 am 06:03 Cloudy with Strong Thunderstorms 70 21 70 21 100 100 NW 9 15 30.12 1020 1 1 N/A
6:09 am 06:09 Cloudy with Strong Thunderstorms 70 21.1 70 21.1 100 100 NNW 7 11 30.12 1020 2 2 0.52 13.21
6:13 am 06:13 Cloudy with Strong Thunderstorms 70 21.1 70 21.1 100 100 VRB 3 6 30.12 1020 3 5 0.53 13.46
6:22 am 06:22 Cloudy with Thunderstorms 70 21 70 21 100 100 ENE 8 13 30.12 1020 7 11 N/A
6:29 am 06:29 Cloudy with Thunderstorms 71 21.7 71 21.7 100 100 NW 6 9 30.12 1020 9 14 0.54 13.72
6:42 am 06:42 Cloudy with Rain 70 21 70 21 100 100 NE 5 7 30.12 1020 5 8 N/A
6:53 am 06:53 Mostly Cloudy with Light Rain 70 21 N/A N/A E 3 6 30.14 1021 9 14 0.59 14.99
7:53 am 07:53 Partly Cloudy 70 21.1 70 21.1 100 100 NE 3 6 30.14 1021 10 16 0.01 0.25
8:53 am 08:53 Cloudy 71 21.7 70 21.1 96 96 N N/A 30.17 1022 10 16 N/A
9:51 am 09:51 Partly Cloudy 73 23 72 22 94 94 N N/A 30.15 1021 10 16 N/A
10:53 am 10:53 Mostly Cloudy 76 24.4 72 22.2 88 88 ENE 5 7 30.17 1022 10 16 N/A
11:53 am 11:53 Mostly Sunny 80 26.7 73 22.8 79 79 VRB 7 11 30.16 1022 10 16 N/A
12:53 pm 12:53 Sunny 80 26.7 72 22.2 76 76 ESE 5 7 30.16 1021 10 16 N/A
1:53 pm 13:53 Sunny 81 27.2 72 22.2 74 74 SE 7 11 30.14 1021 10 16 N/A
2:53 pm 14:53 Mostly Sunny 86 30 74 23.3 67 67 VRB 7 11 30.11 1020 10 16 N/A
3:53 pm 15:53 Partly Cloudy 85 29.4 73 22.8 68 68 ESE 5 7 30.07 1018 10 16 N/A
4:26 pm 16:26 Partly Cloudy with Thunderstorms 84 29 73 23 70 70 E 8 13 30.03 1017 10 16 N/A
4:53 pm 16:53 Mostly Cloudy with Thunderstorms 74 23.3 71 21.7 91 91 SSE 18 30 30.09 1019 2 2 0.10 2.54
5:01 pm 17:01 Cloudy with Thunderstorms 72 22.2 72 22.2 100 100 S 6 9 30.06 1018 2 3 0.17 4.32
5:10 pm 17:10 Mostly Cloudy with Thunderstorms 73 23 72 22 94 94 N 7 11 30.06 1018 5 8 N/A
5:53 pm 17:53 Partly Cloudy with Nearby Thunderstorms 73 22.8 72 22.2 96 96 NNE 3 6 30.09 1019 10 16 0.17 4.32
6:01 pm 18:01 Sunny 75 23.9 73 22.8 94 94 NNE 8 13 30.06 1018 10 16 N/A
6:53 pm 18:53 Partly Cloudy with Light Rain 75 23.9 73 22.8 94 94 ENE 6 9 30.07 1018 10 16 N/A
7:53 pm 19:53 Mostly Cloudy 75 23.9 73 22.8 94 94 NNE 3 6 30.07 1018 10 16 N/A
8:53 pm 20:53 Mostly Cloudy 74 23.3 73 22.8 97 97 N N/A 30.09 1019 10 16 N/A
9:53 pm 21:53 Mostly Clear 73 22.8 73 22.8 100 100 N N/A 30.09 1019 10 16 N/A
10:53 pm 22:53 Clear 74 23.3 73 22.8 97 97 S 8 13 30.08 1019 10 16 N/A
11:53 pm 23:53 Clear 73 22.8 72 22.2 96 96 S 8 13 30.08 1019 10 16 N/A

Powered by AerisWeather